Ana Sayfa
METAR-TAF:

METAR-TAF

Havaalanları :

Hawthorne, Kaliforniya, Amerika Birleşik Devletleri

Enlem: 33-55-25N, Boylam: 118-19-55W, yükseklik: 19 m

Güncel hava durumu gözlemi

Rapor saat 18:53 UTC de 1 saat ve 2 dakika önce yapıldı.
Rüzgar doğudan 6 kt
Sıcaklık 19°C
Nem 26%
Basınç 1023 hPa
Görüş mesafesi: 16.1 km
Açık gökyüzü

METAR: KHHR 181853Z 08006KT 10SM CLR 19/M01 A3021 RMK AO2 SLP231 T01891006

Saat: 11:55 (19:55 UTC)


TAF: eksik

4.000'den fazla havaalanı için hava durumu gözlemleri ve tahminleri (METAR ve TAF raporları).

Kullanılabilir istasyonlar harita üzerinde sarı ve kırmızı noktalarla gösterilir.

İstasyonun adını görmek için fareyi noktanın üzerinde gezdirin.

Sonrasında hava gözlem ve tahminlerini görmek için tıklayın.

Haritayı değiştirmek için: yaklaştırmak için siyah artı işaretli yeşil düğmeye ve uzaklaştırmak için de eksi işaretli düğmeye hızla tıklayın; bitişik haritalar için yeşil okları kullanın.


METAR-TAF: